CW0728 Weather Reports


time (UTC)temp
F
wind
direction
speed
knots
gust
knots
rain 1hr
in
rain 24hr
in
rain mn
in
humidity
%
barometer
mb
20260905190052 72 103 0.0 0.0 0.00 0.03 0.03 61 1009.0
20260905184547 71 80 0.0 1.7 0.00 0.03 0.03 64 1008.9
20260905183011 69 104 0.0 4.3 0.00 0.03 0.03 68 1008.9
20260905181548 69 84 0.0 3.5 0.00 0.03 0.03 68 1009.0
20260905180020 69 355 0.0 0.9 0.00 0.03 0.03 70 1009.0
20260905174600 69 88 0.0 0.0 0.00 0.03 0.03 70 1009.0
20260905173052 68 111 0.0 2.6 0.00 0.03 0.03 80 1008.9
20260905171513 67 103 0.9 7.0 0.00 0.03 0.03 81 1009.1
20260905170100 67 86 0.0 1.7 0.02 0.03 0.03 87 1009.1
20260905164526 66 117 0.0 0.0 0.03 0.03 0.03 89 1009.2
20260905163114 65 109 0.0 0.0 0.03 0.03 0.03 86 1009.3
20260905161557 66 84 0.0 3.5 0.03 0.03 0.03 82 1009.4
20260905160015 69 96 0.0 2.6 0.00 0.00 0.00 72 1009.3
20260905154548 70 59 0.0 0.0 0.00 0.00 0.00 72 1009.0
20260905153032 69 44 0.0 0.0 0.00 0.00 0.00 73 1009.0
20260905151517 68 19 0.0 0.0 0.00 0.00 0.00 73 1009.1
20260905150043 68 107 0.0 5.2 0.00 0.00 0.00 74 1009.0
20260905144523 68 32 0.0 0.9 0.00 0.00 0.00 75 1009.0
20260905143054 67 79 0.0 0.9 0.00 0.00 0.00 75 1008.9
20260905141537 66 88 0.0 0.9 0.00 0.00 0.00 77 1008.8
20260905134536 66 32 0.0 0.0 0.00 0.00 0.00 78 1008.5
20260905133010 65 61 0.9 7.8 0.00 0.00 0.00 79 1008.4
20260905131547 65 120 1.7 7.8 0.00 0.00 0.00 79 1008.1
20260905130030 64 45 0.0 8.7 0.00 0.00 0.00 80 1008.1
20260905124505 64 78 0.0 7.8 0.00 0.00 0.00 81 1007.9
20260905123049 63 51 0.0 0.0 0.00 0.00 0.00 83 1007.8
20260905121515 63 55 0.0 3.5 0.00 0.00 0.00 85 1007.9
20260905120053 62 110 0.0 0.0 0.00 0.00 0.00 86 1007.9
20260905114525 61 53 0.0 5.2 0.00 0.00 0.00 88 1007.9
20260905113002 60 105 0.0 0.0 0.00 0.00 0.00 90 1007.7
20260905111551 60 284 0.0 0.0 0.00 0.00 0.00 91 1007.6
20260905110037 59 21 0.0 2.6 0.00 0.00 0.00 92 1007.5
20260905104508 58 327 0.0 0.0 0.00 0.00 0.00 93 1007.3
20260905103043 58 339 0.0 0.0 0.00 0.00 0.00 93 1007.2
20260905101524 58 339 0.0 0.0 0.00 0.00 0.00 93 1007.1
20260905100004 57 337 0.0 0.0 0.00 0.00 0.00 93 1007.0
20260905094549 56 337 0.0 0.0 0.00 0.00 0.00 92 1006.8
20260905093016 56 337 0.0 0.0 0.00 0.00 0.00 91 1006.7
20260905091601 57 337 0.0 0.0 0.00 0.00 0.00 91 1006.6
20260905090030 57 337 0.0 0.0 0.00 0.00 0.00 91 1006.7
20260905084503 57 337 0.0 0.0 0.00 0.00 0.00 90 1006.5
20260905083106 58 337 0.0 0.0 0.00 0.00 0.00 90 1006.3
20260905081524 58 337 0.0 0.0 0.00 0.00 0.00 91 1006.4
20260905074538 58 348 0.0 0.0 0.00 0.00 0.00 91 1006.1
20260905073014 58 348 0.0 0.0 0.00 0.00 0.00 90 1006.1
20260905071551 58 347 0.0 0.9 0.00 0.00 0.00 90 1006.1
20260905070032 59 348 0.0 0.0 0.00 0.00 0.00 90 1006.3
20260905064509 59 348 0.0 0.9 0.00 0.00 0.00 89 1006.4
20260905063044 59 355 0.0 0.0 0.00 0.00 0.00 89 1006.4
20260905061519 59 355 0.0 0.0 0.00 0.00 0.00 89 1006.3
20260905060055 59 355 0.0 0.0 0.00 0.00 0.00 88 1006.3
20260905054557 59 355 0.0 0.0 0.00 0.00 0.00 88 1006.4
20260905053014 60 30 0.0 0.0 0.00 0.00 0.00 88 1006.4
20260905051552 60 30 0.0 0.0 0.00 0.00 0.00 87 1006.5
20260905050023 60 332 0.0 0.0 0.00 0.00 0.00 86 1006.5
20260905044506 61 332 0.0 0.0 0.00 0.00 0.00 85 1006.5
20260905043101 61 332 0.0 0.0 0.00 0.00 0.00 84 1006.5
20260905041528 62 332 0.0 0.0 0.00 0.00 0.00 83 1006.5
20260905040002 63 332 0.0 0.0 0.00 0.00 0.00 82 1006.6
20260905034536 63 332 0.0 0.0 0.00 0.00 0.00 80 1006.6
20260905033020 64 332 0.0 0.0 0.00 0.00 0.00 79 1006.5
20260905031556 64 333 0.0 0.0 0.00 0.00 0.00 79 1006.5
20260905030036 64 333 0.0 1.7 0.00 0.00 0.00 79 1006.6
20260905024506 64 343 0.0 1.7 0.00 0.00 0.00 79 1006.6
20260905023046 65 281 0.0 0.9 0.00 0.00 0.00 79 1006.7
20260905021519 65 273 0.0 0.9 0.00 0.00 0.00 79 1006.8
20260905020053 66 273 0.0 0.0 0.00 0.00 0.00 78 1006.9
20260905014530 66 273 0.0 0.0 0.00 0.00 0.00 76 1006.8
20260905013016 67 273 0.0 0.0 0.00 0.00 0.00 75 1006.9
20260905011554 68 273 0.0 0.0 0.00 0.00 0.00 74 1006.9
20260905010036 69 273 0.0 0.0 0.00 0.00 0.00 71 1006.9
20260905004504 70 273 0.0 0.0 0.00 0.00 0.00 69 1006.8
20260905003042 71 273 0.0 0.0 0.00 0.00 0.00 67 1006.9
20260905001525 71 273 0.0 0.9 0.00 0.00 0.00 64 1006.9
20260905000010 72 271 0.0 0.9 0.00 0.00 0.00 63 1006.8
20260904234548 72 331 0.0 3.5 0.00 0.00 0.00 62 1006.5
20260904233039 72 314 0.0 0.0 0.00 0.00 0.00 61 1006.4
20260904231517 73 291 0.0 1.7 0.00 0.00 0.00 60 1006.3
20260904230049 73 331 0.0 1.7 0.00 0.00 0.00 60 1006.4
20260904224525 74 294 0.0 3.5 0.00 0.00 0.00 60 1006.3
20260904223009 74 342 0.0 2.6 0.00 0.00 0.00 60 1006.2
20260904221553 74 302 1.7 7.0 0.00 0.00 0.00 60 1006.3
20260904220024 75 261 0.0 7.0 0.00 0.00 0.00 60 1006.3
20260904214601 75 298 0.9 5.2 0.00 0.00 0.00 61 1006.1
20260904213035 74 192 0.0 0.0 0.00 0.00 0.00 78 1006.1
20260904211509 72 192 0.0 0.0 0.00 0.00 0.00 82 1006.1
20260904210053 71 192 0.0 0.0 0.00 0.00 0.00 84 1006.2
20260904204532 72 199 0.0 0.0 0.00 0.00 0.00 83 1006.2
20260904203003 72 161 0.0 0.0 0.00 0.00 0.00 84 1006.1
20260904201542 72 192 0.0 0.0 0.00 0.00 0.00 81 1006.1
20260904200013 74 169 0.0 0.0 0.00 0.00 0.00 78 1006.0
20260904194551 75 233 0.0 0.0 0.00 0.00 0.00 76 1006.0
20260904193038 75 229 0.0 0.0 0.00 0.00 0.00 76 1006.0
20260904191509 74 219 0.0 0.0 0.00 0.00 0.00 78 1006.2